Location: Muenchen
(48.1800°N, 11.5800°E)
Time: 03:05:52
(UTC+02:00)

Sich 1 Rocket - Visible Passes

Search period start: 30 March 2015 00:00
Search period end: 09 April 2015 00:00
Orbit: 617 x 654 km, 82.5° (Epoch: 29 March)

Date Brightness Start Highest point End Pass type
(mag) Time Alt. Az. Time Alt. Az. Time Alt. Az.
30 Mar 4.6 21:38:40 10° N 21:42:29 30° ENE 21:42:29 30° ENE visible
30 Mar 5.4 23:16:52 10° NNW 23:20:00 29° WNW 23:20:00 29° WNW visible
31 Mar 3.8 22:00:54 10° N 22:05:14 57° ENE 22:05:14 57° ENE visible
31 Mar 6.1 23:40:14 10° NW 23:42:45 17° WNW 23:42:45 17° WNW visible
01 Apr 5.5 20:46:38 10° NNE 20:49:05 15° ENE 20:50:30 13° E visible
01 Apr 3.7 22:23:23 10° NNW 22:27:57 74° W 22:28:01 74° WSW visible
02 Apr 4.8 21:08:13 10° NNE 21:12:02 26° ENE 21:13:18 23° E visible
02 Apr 4.8 22:46:10 10° NNW 22:50:23 37° W 22:50:49 36° WSW visible
03 Apr 3.9 21:30:21 10° N 21:34:47 48° ENE 21:36:08 36° ESE visible
03 Apr 5.8 23:09:21 10° NW 23:12:43 20° W 23:13:39 19° WSW visible
04 Apr 5.6 20:16:29 10° NE 20:18:23 13° ENE 20:20:29 10° E visible
04 Apr 3.6 21:52:47 10° N 21:57:23 87° W 21:59:00 41° S visible
04 Apr 6.5 23:34:03 10° WNW 23:34:56 10° W 23:35:33 10° W visible
05 Apr 5.0 20:37:48 10° NNE 20:41:22 22° ENE 20:44:23 13° ESE visible
05 Apr 4.6 22:15:29 10° NNW 22:19:51 44° W 22:21:55 27° SSW visible
06 Apr 4.2 20:59:50 10° N 21:04:10 41° ENE 21:07:20 17° SE visible
06 Apr 5.7 22:38:31 10° NW 22:42:12 23° W 22:44:52 14° SW visible
07 Apr 3.6 21:22:12 10° N 21:26:48 79° E 21:30:20 17° SSE visible
07 Apr 6.4 23:02:25 10° WNW 23:04:27 12° W 23:06:15 10° WSW visible
08 Apr 4.4 21:44:49 10° NNW 21:49:18 53° W 21:53:22 12° S visible
